SCF7520 ZYTX-ZKPY

Flight info

Callsign SCF7520
Flight time N/A
Altitude 26600
Route ANS62D ANSUK A345 GASAN GAS11A
Aircraft A359/H-SDE2E3GHIJ3J4J5LM1ORWXY/LB1D1

Departure

Time 2026-04-26 13:05
Airport Shenyang Taoxian International Airport (ZYTX)

Arrival

Time N/A
Airport Pyongyang Sunan International Airport (ZKPY)
Time Latitude Longitude Altitude Speed Heading
2026-04-26 12:57 41.64457 123.49608 213 ft 0 kts 317°
2026-04-26 13:01 41.64458 123.49607 213 ft 2 kts 320°
2026-04-26 13:02 41.64508 123.49556 216 ft 15 kts 322°
2026-04-26 13:02 41.64579 123.49454 222 ft 11 kts 322°
2026-04-26 13:02 41.64606 123.49460 220 ft 5 kts 46°
2026-04-26 13:02 41.64618 123.49581 213 ft 17 kts 82°
2026-04-26 13:03 41.64680 123.49721 222 ft 18 kts 47°
2026-04-26 13:03 41.64771 123.49856 223 ft 20 kts 44°
2026-04-26 13:03 41.64883 123.49832 219 ft 18 kts 318°
2026-04-26 13:03 41.64918 123.49742 220 ft 9 kts 253°
2026-04-26 13:04 41.64896 123.49702 225 ft 0 kts 228°
2026-04-26 13:04 41.64749 123.49480 217 ft 71 kts 229°
2026-04-26 13:04 41.64253 123.48732 215 ft 141 kts 229°
2026-04-26 13:05 41.63522 123.47630 682 ft 160 kts 228°
2026-04-26 13:05 41.62769 123.46583 1494 ft 159 kts 225°
2026-04-26 13:05 41.61939 123.45478 1890 ft 181 kts 225°
2026-04-26 13:05 41.60977 123.44177 2114 ft 211 kts 226°
2026-04-26 13:06 41.59890 123.42684 2518 ft 237 kts 226°
2026-04-26 13:06 41.58689 123.41025 2948 ft 257 kts 226°
2026-04-26 13:06 41.57301 123.39447 3562 ft 268 kts 209°
2026-04-26 13:06 41.55703 123.38876 4179 ft 271 kts 178°
2026-04-26 13:07 41.53882 123.39471 4965 ft 272 kts 153°
2026-04-26 13:07 41.52186 123.40547 5695 ft 276 kts 152°
2026-04-26 13:07 41.50439 123.41661 6457 ft 281 kts 153°
2026-04-26 13:07 41.48650 123.42761 7153 ft 286 kts 153°
2026-04-26 13:08 41.47012 123.44281 7776 ft 290 kts 131°
2026-04-26 13:08 41.45993 123.46578 8437 ft 290 kts 105°
2026-04-26 13:08 41.45474 123.49194 9122 ft 294 kts 99°
2026-04-26 13:08 41.45027 123.51883 9792 ft 301 kts 99°
2026-04-26 13:09 41.44559 123.54645 10325 ft 312 kts 100°
2026-04-26 13:09 41.44054 123.57543 10601 ft 330 kts 101°
2026-04-26 13:09 41.43511 123.60602 10866 ft 348 kts 101°
2026-04-26 13:09 41.42936 123.63801 11183 ft 361 kts 102°
2026-04-26 13:10 41.42339 123.67086 11685 ft 367 kts 102°
2026-04-26 13:10 41.41734 123.70414 12229 ft 372 kts 102°
2026-04-26 13:10 41.41119 123.73792 12784 ft 377 kts 102°
2026-04-26 13:10 41.40495 123.77210 13315 ft 382 kts 103°
2026-04-26 13:11 41.39864 123.80668 13858 ft 386 kts 103°
2026-04-26 13:11 41.39224 123.84166 14324 ft 391 kts 103°
2026-04-26 13:11 41.38576 123.87699 14816 ft 395 kts 103°
2026-04-26 13:11 41.37889 123.91251 15324 ft 398 kts 107°
2026-04-26 13:12 41.36845 123.94675 15859 ft 400 kts 117°
2026-04-26 13:12 41.35590 123.97997 16360 ft 403 kts 118°
2026-04-26 13:12 41.34297 124.01331 16836 ft 407 kts 119°
2026-04-26 13:12 41.32997 124.04692 17347 ft 410 kts 119°
2026-04-26 13:13 41.31690 124.08081 17842 ft 414 kts 119°
2026-04-26 13:13 41.30334 124.11470 18325 ft 416 kts 123°
2026-04-26 13:13 41.28549 124.14478 18753 ft 413 kts 140°
2026-04-26 13:13 41.26215 124.16636 19189 ft 407 kts 159°
2026-04-26 13:14 41.23546 124.17763 19613 ft 400 kts 176°
2026-04-26 13:14 41.20784 124.18122 20043 ft 399 kts 182°
2026-04-26 13:14 41.18002 124.18323 20478 ft 402 kts 182°
2026-04-26 13:14 41.15198 124.18526 20902 ft 405 kts 182°
2026-04-26 13:15 41.12375 124.18742 21311 ft 408 kts 182°
2026-04-26 13:15 41.09527 124.18972 21746 ft 411 kts 182°
2026-04-26 13:15 41.06658 124.19208 22165 ft 415 kts 182°
2026-04-26 13:15 41.04751 124.19368 22451 ft 416 kts 181°
2026-04-26 13:16 41.00864 124.19749 23026 ft 421 kts 180°
2026-04-26 13:16 40.97939 124.20083 23443 ft 424 kts 180°
2026-04-26 13:16 40.94992 124.20436 23796 ft 427 kts 180°
2026-04-26 13:16 40.92031 124.20792 24181 ft 428 kts 180°
2026-04-26 13:17 40.86092 124.21493 25001 ft 429 kts 181°
2026-04-26 13:17 40.83150 124.21834 25420 ft 431 kts 181°
2026-04-26 13:18 40.77164 124.22518 26275 ft 433 kts 182°
2026-04-26 13:18 40.74153 124.22860 26588 ft 434 kts 182°
2026-04-26 13:18 40.68341 124.23541 26607 ft 406 kts 182°
2026-04-26 13:19 40.65543 124.23864 26602 ft 403 kts 182°
2026-04-26 13:19 40.62741 124.24177 26593 ft 404 kts 182°
2026-04-26 13:19 40.59943 124.24485 26591 ft 404 kts 183°
2026-04-26 13:19 40.57146 124.24793 26590 ft 404 kts 182°
2026-04-26 13:20 40.54348 124.25104 26591 ft 403 kts 182°
2026-04-26 13:20 40.51549 124.25418 26590 ft 403 kts 182°
2026-04-26 13:20 40.48755 124.25732 26588 ft 403 kts 182°
2026-04-26 13:20 40.45958 124.26047 26586 ft 403 kts 182°
2026-04-26 13:21 40.43165 124.26361 26583 ft 403 kts 182°
2026-04-26 13:21 40.41275 124.26574 26583 ft 403 kts 182°
2026-04-26 13:21 40.37582 124.26990 26583 ft 403 kts 182°
2026-04-26 13:21 40.34786 124.27312 26582 ft 404 kts 182°
2026-04-26 13:22 40.31999 124.27972 26582 ft 412 kts 172°
2026-04-26 13:22 40.29296 124.29346 26581 ft 423 kts 159°
2026-04-26 13:22 40.26844 124.31545 26578 ft 434 kts 143°
2026-04-26 13:22 40.24846 124.34540 26578 ft 443 kts 127°
2026-04-26 13:23 40.23467 124.38176 26585 ft 449 kts 112°
2026-04-26 13:23 40.22482 124.42061 26574 ft 451 kts 109°
2026-04-26 13:23 40.21638 124.46013 26575 ft 451 kts 107°
2026-04-26 13:23 40.20731 124.49892 26225 ft 439 kts 115°
2026-04-26 13:24 40.19387 124.53404 25207 ft 429 kts 124°
2026-04-26 13:24 40.17818 124.56736 23849 ft 432 kts 125°